Voltar ao catálogo

ARIANE 5 R/B

AtivoHEO
NORAD 29275·ROCKET BODY·🇫🇷 France

Lançado Aug 11, 2006 de Guiana Space Centre

Loading…

Próximas Passagens (próximas 24 horas)

TLE

AtualizadoSource: Space-Track

Época: Sep 14, 2026, 11:16 UTC

1 29275U 06033D   26257.46969993  .00001186  00000-0  48459-3 0  9993
2 29275   6.3969  45.7899 6958831 246.3452  29.7205  2.68020211179800

Acompanhe ARIANE 5 R/B em tempo real com AllMySat

Download on the App Store